Location: Duwoni
(0.4018°N, 29.8922°E)
Time: 01:13:41
(UTC+00:00)

Daily predictions for brighter satellites

Satellite Brightness Start Highest point End
(mag) Time Altitude Azimuth Time Altitude Azimuth Time Altitude Azimuth
Cosmos 2322 Rocket 4.3 00:58:19 22° NE 00:58:19 22° NE 01:00:29 10° NE
CZ-3A R/B 3.7 01:09:12 38° ENE 01:09:12 38° ENE 01:16:35 10° ENE
ARIANE DEB (SYLDA) 4.2 00:29:53 10° W 01:09:08 67° N 01:14:32 10° ENE
SL-16 R/B 3.8 01:25:08 28° N 01:25:08 28° N 01:27:40 10° NNE
Ariane H10 4.5 00:31:22 10° W 01:22:22 88° N 01:27:32 10° E
Ariane 5 R/B 4.4 01:31:26 53° ENE 01:31:26 53° ENE 01:37:53 10° E
SL-8 Rocket 4.3 01:36:48 62° ESE 01:37:23 65° E 01:43:37 10° NNE
Cosmos 2227 Rocket 4.4 01:33:03 10° NNW 01:33:57 15° NNW 01:33:57 15° NNW
ATLAS 2A CENTAUR R/B 4.2 01:41:13 33° SSE 01:41:13 33° SSE 01:44:32 10° ESE
Chandra Rocket (1) 4.3 01:14:38 10° WNW 01:44:41 71° SW 01:51:24 10° SE
ATLAS 2A CENTAUR R/B 3.5 01:47:48 73° SW 01:48:33 87° SSE 01:52:27 10° ENE
SL-8 R/B 4.3 01:51:43 53° E 01:51:43 53° E 01:55:49 10° SE
Cosmos 1315 Rocket 4.4 01:48:04 10° NNE 01:51:34 32° E 01:51:34 32° E
ALOS 4.4 01:53:03 10° NE 01:56:44 23° ESE 02:00:24 10° SSE
Cosmos 2360 Rocket 2.1 02:00:36 72° S 02:01:12 86° ESE 02:06:48 10° NNE
Ariane H10-3 3.5 02:04:37 23° NE 02:04:37 23° NE 02:06:54 10° ENE
Lacrosse 4 Rocket 4.2 02:02:10 10° NNE 02:05:00 18° ENE 02:07:47 10° ESE
GPS 2-17 Rocket1 3.4 02:09:37 54° SE 02:09:37 54° SE 02:13:44 10° E
CZ-4B R/B 3.3 02:08:38 23° ESE 02:09:35 27° E 02:12:14 10° NNE
STARLINK-32 4.4 02:09:35 41° SE 02:09:36 41° SE 02:13:20 10° NE
Cosmos 2285 Rocket 3.9 02:03:24 10° NNW 02:09:38 65° WSW 02:15:51 10° S
STARLINK-40 4.3 02:11:10 43° SE 02:11:15 43° SE 02:15:00 10° NE
STARLINK-44 4.2 02:12:44 46° SE 02:12:53 46° SE 02:16:40 10° NE
Cosmos 1825 4.0 02:16:31 22° NNW 02:16:31 22° NNW 02:17:59 10° N
STARLINK-37 3.9 02:14:35 55° SE 02:14:41 55° ESE 02:18:32 10° NE
Cosmos 1538 Rocket 4.5 02:12:32 24° S 02:15:34 58° ESE 02:20:45 10° NNE
Cosmos 1484 Rocket 3.5 02:11:46 10° NNE 02:15:37 52° ESE 02:17:06 33° SSE
STARLINK-36 4.0 02:15:54 50° SE 02:16:10 51° SE 02:20:00 10° NE
STARLINK-68 3.6 02:17:42 63° SE 02:17:49 64° SE 02:21:41 10° NE
Meteor 2-2 Rocket 4.2 02:12:32 10° N 02:18:33 81° W 02:24:29 10° S
STARLINK-24 3.6 02:18:29 63° SSE 02:18:45 66° SE 02:22:42 10° NE
ARIANE 2 DEBRIS 3.0 02:18:07 58° WNW 02:18:51 82° N 02:21:54 10° E
STARLINK-63 3.7 02:19:16 61° SSE 02:19:34 63° SE 02:23:28 10° NE
Hubble Space Telescope 3.3 02:23:27 10° SSE 02:23:27 10° SSE 02:23:31 10° SSE
STARLINK-35 3.7 02:20:40 56° SSE 02:21:07 61° SE 02:25:00 10° NE
Cosmos 2366 rocket 3.9 02:19:04 39° SSW 02:21:15 60° W 02:27:19 10° N
ADEOS 4.1 02:17:31 10° N 02:22:02 38° WNW 02:22:02 38° WNW
Okean 3 Rocket 3.6 02:22:31 58° W 02:22:31 58° W 02:26:51 10° N
STARLINK-51 3.6 02:22:09 59° SSE 02:22:34 65° SE 02:26:26 10° NE
FENGYUN 3A 4.2 02:18:46 10° NNE 02:24:05 59° ESE 02:29:25 10° S
STARLINK-30 3.6 02:23:51 59° S 02:24:24 69° ESE 02:28:19 10° NE
STARLINK-1015 4.3 02:23:53 36° S 02:25:07 48° ESE 02:29:06 10° NE
STARLINK-72 3.5 02:25:27 59° S 02:26:04 74° ESE 02:29:59 10° NE
STARLINK-1010 4.0 02:24:56 41° S 02:26:07 59° SE 02:30:17 10° NE
Cosmos 2219 Rocket 3.4 02:21:49 10° S 02:27:02 39° ESE 02:32:13 10° NE
ARIANE 5 R/B 1.7 02:27:53 76° N 02:27:53 76° N 02:33:38 10° E
STARLINK-59 3.4 02:28:49 61° SSW 02:29:27 89° ESE 02:33:23 10° NE
STARLINK-1016 4.0 02:28:40 36° S 02:30:03 57° SE 02:34:07 10° NE
STARLINK-56 3.4 02:30:12 56° SSW 02:30:59 86° SE 02:34:56 10° NE
STARLINK-50 3.4 02:31:21 52° SW 02:32:16 90° W 02:36:17 10° NE
CZ-2C R/B 3.6 02:28:18 10° NNW 02:32:05 26° WNW 02:32:05 26° WNW
STARLINK-73 3.4 02:31:46 54° SW 02:32:36 89° WNW 02:36:33 10° NNE
STARLINK-38 3.3 02:33:12 54° SW 02:34:02 84° NW 02:37:55 10° NNE
Nadezhda 3 Rocket 4.5 02:28:41 10° NNW 02:34:27 38° W 02:37:33 24° SW
STARLINK-1008 3.8 02:33:29 35° SSW 02:35:03 67° SE 02:39:09 10° NE
STARLINK-65 3.3 02:34:57 49° SW 02:35:55 80° NW 02:39:51 10° NNE
ARIANE 5 R/B 3.5 02:33:50 30° W 02:36:25 76° N 10:22:28 10° E
STARLINK-53 3.4 02:36:43 48° WSW 02:37:39 69° NW 02:41:34 10° NNE
Cosmos 2322 Rocket 4.0 02:40:10 14° WNW 02:40:10 14° WNW 02:41:59 10° NW
METEOR-M 4.2 02:34:25 10° NNE 02:39:45 80° ESE 02:45:06 10° S
STARLINK-1014 3.6 02:38:16 33° SSW 02:40:00 79° SE 02:44:06 10° NE
Spot 2 4.0 02:39:31 10° N 02:43:27 53° WNW 02:45:22 27° SW
COSMOS 2428 3.4 02:39:03 10° S 02:44:37 55° ESE 02:50:10 10° NNE
STARLINK-1025 3.5 02:43:00 30° SW 02:44:57 89° NW 02:49:05 10° NNE
Cosmos 1340 4.2 02:41:36 10° SSE 02:45:06 36° E 02:48:34 10° NNE
Cosmos 1821 Rocket 4.3 02:38:56 10° S 02:45:17 73° E 02:51:39 10° N
Lacrosse 5 rocket 4.1 02:43:27 10° SSE 02:45:36 13° ESE 02:47:43 10° E
STARLINK-1017 3.5 02:47:48 28° SW 02:49:55 76° NW 02:54:02 10° NNE
Cosmos 2082 4.3 02:45:47 10° NW 02:50:40 31° WSW 02:55:34 10° SSW
STARLINK-1023 3.6 02:51:22 25° SW 02:53:39 68° WNW 02:57:48 10° NNE
Cosmos 1408 Rocket 3.7 02:50:35 15° SSW 02:54:07 50° W 02:58:20 10° N
STARLINK-1007 3.8 02:57:22 22° SW 02:59:51 55° WNW 03:03:54 10° NNE
STARLINK-25 4.1 02:58:50 23° WSW 03:00:39 36° NW 03:04:12 10° NNE
Meteor 2-3 Rocket 3.8 02:55:07 10° SSW 03:00:44 59° W 03:06:17 10° N
Cosmos 2344 3.8 02:51:34 10° SSW 03:00:59 63° WNW 03:08:32 10° NNE
ARIANE 44L R/B 3.0 02:59:56 14° WNW 03:01:24 22° N 03:03:00 10° NE
Cosmos 2263 Rocket 3.4 02:57:37 10° N 03:02:54 46° ENE 03:08:11 10° SSE
Cosmos 1727 Rocket 4.5 02:57:16 10° N 03:03:21 65° E 03:09:27 10° SSE
CZ-3 R/B 4.5 02:41:45 13° W 03:03:35 30° NW 03:12:12 10° NNE
STARLINK-1048 4.0 03:02:10 19° WSW 03:04:49 47° NW 03:08:48 10° NNE
Meteor PRIRODA 4.0 03:01:28 10° N 03:04:54 41° WNW 03:08:18 10° SSW
Cosmos 2237 Rocket 4.4 03:00:41 10° SSE 03:05:13 25° ESE 03:09:46 10° NE
GPS 2-12 Rocket1 3.6 03:00:34 10° WNW 03:05:16 60° NNE 03:10:01 10° E
Cosmos 1818 4.4 03:01:27 10° S 03:06:39 51° ESE 03:11:52 10° NE
ARIANE 5 R/B 4.0 02:21:43 10° W 03:08:18 89° N 03:12:58 10° E
SL-24 R/B 4.4 03:04:23 10° S 03:08:39 53° W 03:13:28 10° NNW
STARLINK-1049 4.2 03:06:58 17° WSW 03:09:48 40° WNW 03:13:42 10° NNE
PSLV R/B 4.3 03:06:45 10° SSE 03:10:47 67° ENE 03:14:47 10° N
ATLAS 5 CENTAUR R/B 3.2 03:07:49 10° S 03:11:32 30° ESE 03:15:02 10° NE
SWARM A 4.5 03:10:01 10° NNW 03:13:12 45° W 03:16:24 10° SSW
STARLINK-1051 4.4 03:11:44 14° WSW 03:14:45 34° NW 03:18:32 10° N
MOS 1-B 4.4 03:10:21 10° NNE 03:16:07 87° WNW 03:21:57 10° SSW
ARIANE 5 DEB (SYLDA) 2.9 03:06:58 10° W 03:16:15 83° N 03:19:19 10° E
Cosmos 2333 Rocket 2.4 03:12:11 10° SSW 03:17:37 50° WNW 03:23:03 10° N
CCE 1 Rocket 3.3 03:16:36 12° WSW 03:20:05 76° NNW 03:24:23 10° NE
GPS 2-04 Rocket1 3.7 03:16:21 10° NW 03:20:26 52° NE 03:24:29 10° ESE
H-2A R/B 3.6 03:20:09 10° NNW 03:23:50 27° WNW 03:27:38 10° SW
STARLINK-1228 3.7 03:21:45 10° WNW 03:24:49 34° SW 03:27:55 10° S
STARLINK-1234 3.5 03:22:14 10° NW 03:25:07 35° SW 03:28:00 10° SSE
STARLINK-1212 2.8 03:23:25 10° NW 03:26:29 61° SW 03:29:34 10° SSE
STARLINK-1105 2.8 03:23:54 10° NW 03:26:56 60° SW 03:30:00 10° SSE
STARLINK-1209 3.8 03:24:47 10° WNW 03:27:37 29° SW 03:30:27 10° S
STARLINK-1247 2.9 03:24:50 10° NW 03:27:53 58° SW 03:30:57 10° SSE
CZ-4B R/B 3.6 03:22:36 10° NNE 03:27:58 66° ESE 03:33:15 10° S
STARLINK-1227 2.9 03:25:17 10° NW 03:28:18 56° SW 03:31:22 10° SSE
Cosmos 1346 Rocket 2.8 03:24:26 10° S 03:28:26 74° W 03:32:26 10° N
STARLINK-1226 2.9 03:26:09 10° NW 03:29:11 54° WSW 03:32:15 10° SSE
Centaur AC-72 4.1 03:19:59 10° W 03:29:39 35° NNW 03:34:57 10° NE
STARLINK-1215 3.0 03:27:06 10° NW 03:30:08 52° SW 03:33:11 10° SSE
STARLINK-1217 3.0 03:28:53 10° NW 03:31:54 48° SW 03:34:55 10° SSE
Cosmos 1689 Rocket 3.6 03:29:58 10° SW 03:32:00 17° WSW 03:34:01 10° WNW
Cosmos 1680 Rocket 3.5 03:26:55 10° SSW 03:32:06 75° WNW 03:37:17 10° N
NOAA 6 4.1 03:27:12 10° N 03:32:22 80° WNW 03:37:33 10° SSW
STARLINK-1229 3.1 03:29:49 10° NW 03:32:49 47° SW 03:35:51 10° SSE
STARLINK-1270 3.1 03:30:42 10° NW 03:33:41 45° WSW 03:36:42 10° SSE
Cosmos 923 Rocket 4.3 03:28:48 10° SSW 03:33:49 47° WNW 03:38:47 10° N
ALOS 3.8 03:30:55 10° NW 03:33:52 17° WNW 03:36:50 10° WSW
Cosmos 1743 Rocket 4.4 03:30:40 10° SSW 03:34:40 32° W 03:38:38 10° NNW
ARIANE 5 R/B 4.5 03:51:07 10° W 04:41:51 73° N 04:46:36 10° E
